Beijing, China

8:39 AM CST on October 22, 2017 (GMT +0800)
Beijing Capital

Weather History for ZBAA - June, 2017

Change the Weather History Date:

Monday, June 19, 2017

  Actual Average Record
Temperature  
Mean Temperature 82 °F -  
Max Temperature 96 °F 87 °F 98 °F (2000)
Min Temperature 68 °F 69 °F 60 °F (1998)
Cooling Degree Days 17    
Growing Degree Days 32 (Base 50)    
Moisture  
Dew Point 58 °F    
Average Humidity 46    
Maximum Humidity 83    
Minimum Humidity 14    
Precipitation  
Precipitation 0.00 in 0.18 in - ()
Sea Level Pressure  
Sea Level Pressure 29.57 in    
Wind  
Wind Speed 7 mph ()    
Max Wind Speed 16 mph    
Max Gust Speed 22 mph    
Visibility 8.8 miles    
Events      
Averages and records for this station are not official NWS values.
T = Trace of Precipitation, MM = Missing Value Source: Averaged Metar Reports

Daily Weather History Graph

Daily Weather History Graph

Search for Another Location

Airport or City:

Trip Planner

Search our weather history database for the weather conditions in past years. The results will help you decide how hot, cold, wet, or windy it might be!

Date:

Astronomy

Jun. 19, 2017 Rise Set
Actual Time 4:44 AM CST 7:45 PM CST
Civil Twilight 4:11 AM CST 8:18 PM CST
Nautical Twilight 3:29 AM CST 9:00 PM CST
Astronomical Twilight 2:40 AM CST 9:49 PM CST
Moon 1:14 AM CST (6/19) 1:58 PM CST (6/19)
Length of Visible Light 16h 07m
Length of Day
15h 01m
Waning Crescent, 32% of the Moon is Illuminated
Jun 19
Waning Crescent
Jun 24
New
Jul 1
First Quarter
Jul 9
Full
Jul 17
Last Quarter

Hourly Weather History & Observations

Time (CST) Temp. Heat Index Dew Point Humidity Pressure Visibility Wind Dir Wind Speed Gust Speed Precip Events Conditions
12:00 AM 73.4 °F - 62.6 °F 69% 29.62 in - North 8.9 mph - N/A   Clear
12:30 AM 73.4 °F - 62.6 °F 69% 29.62 in - North 11.2 mph - N/A   Clear
1:00 AM 71.6 °F - 62.6 °F 73% 29.62 in - North 8.9 mph - N/A   Clear
1:30 AM 73.4 °F - 62.6 °F 69% 29.62 in - North 11.2 mph - N/A   Clear
2:00 AM 75 °F - 61 °F 52% 29.61 in 11 mi NNE 4.5 mph - -   Clear
2:00 AM 71.6 °F - 62.6 °F 73% 29.62 in - North 6.7 mph - N/A   Clear
2:30 AM 71.6 °F - 62.6 °F 73% 29.62 in - North 4.5 mph - N/A   Clear
3:00 AM 69.8 °F - 62.6 °F 78% 29.62 in - North 4.5 mph - N/A   Clear
3:30 AM 69.8 °F - 62.6 °F 78% 29.62 in - North 4.5 mph - N/A   Clear
4:00 AM 68.0 °F - 62.6 °F 83% 29.62 in - North 6.7 mph - N/A   Clear
4:30 AM 68.0 °F - 62.6 °F 83% 29.62 in - North 8.9 mph - N/A   Clear
5:00 AM 73 °F - 61 °F 56% 29.62 in 14 mi NE 4.5 mph - -  
5:00 AM 68.0 °F - 62.6 °F 83% 29.62 in - North 6.7 mph - N/A   Clear
5:30 AM 69.8 °F - 62.6 °F 78% 29.62 in - North 6.7 mph - N/A   Clear
6:00 AM 71.6 °F - 62.6 °F 73% 29.65 in - NNE 4.5 mph - N/A   Clear
6:30 AM 73.4 °F - 62.6 °F 69% 29.65 in - NE 4.5 mph - N/A   Clear
7:00 AM 73.4 °F - 64.4 °F 73% 29.65 in - NNE 8.9 mph - N/A   Clear
7:30 AM 75.2 °F - 64.4 °F 69% 29.65 in - North 6.7 mph - N/A   Clear
8:00 AM 79 °F - 63 °F 48% 29.64 in 7 mi NE 4.5 mph - -  
8:00 AM 78.8 °F - 62.6 °F 57% 29.65 in - North 6.7 mph - N/A   Clear
8:30 AM 80.6 °F 81.8 °F 62.6 °F 54% 29.65 in - North 6.7 mph - N/A   Clear
9:00 AM 80.6 °F 81.8 °F 62.6 °F 54% 29.62 in - NE 4.5 mph - N/A   Clear
9:30 AM 82.4 °F 83.4 °F 62.6 °F 51% 29.62 in - East 4.5 mph - N/A   Clear
10:00 AM 86.0 °F 86.6 °F 62.6 °F 45% 29.62 in - Variable 4.5 mph - N/A   Clear
10:30 AM 86.0 °F 85.4 °F 59.0 °F 40% 29.59 in - Variable 4.5 mph - N/A   Clear
11:00 AM 87 °F - 60 °F 30% 29.60 in 7 mi ENE 2.2 mph - -   Mostly Cloudy
11:00 AM 87.8 °F 87.1 °F 59.0 °F 38% 29.59 in - Variable 4.5 mph - N/A   Clear
11:30 AM 89.6 °F 88.9 °F 59.0 °F 36% 29.59 in - Variable 4.5 mph - N/A   Clear
12:00 PM 91.4 °F 90.7 °F 59.0 °F 34% 29.59 in - Variable 2.2 mph - N/A   Clear
12:30 PM 91.4 °F 89.9 °F 57.2 °F 31% 29.56 in - Variable 6.7 mph - N/A   Clear
1:00 PM 93.2 °F 91.9 °F 57.2 °F 30% 29.56 in - SSE 6.7 mph - N/A   Clear
1:30 PM 93.2 °F 90.8 °F 53.6 °F 26% 29.53 in - South 8.9 mph - N/A   Clear
2:00 PM 93 °F - 57 °F 20%  in 16 mi NNW 2.2 mph - -   Mostly Cloudy
2:00 PM 95.0 °F - 51.8 °F 23% 29.53 in 6.2 mi Variable 8.9 mph - N/A   Partly Cloudy
2:30 PM 96.8 °F 94.4 °F 53.6 °F 23% 29.50 in 6.2 mi Variable 6.7 mph - N/A   Partly Cloudy
3:00 PM 95.0 °F 93.0 °F 55.4 °F 26% 29.50 in - SSE 11.2 mph - N/A   Clear
3:30 PM 95.0 °F 93.0 °F 55.4 °F 26% 29.50 in - SSE 8.9 mph - N/A   Clear
4:00 PM 96.8 °F - 51.8 °F 22% 29.50 in - South 6.7 mph - N/A   Clear
4:30 PM 95.0 °F 92.7 °F 53.6 °F 25% 29.47 in - SSW 8.9 mph - N/A   Clear
5:00 PM 95 °F - 51 °F 14% 29.48 in 18 mi SSW 6.7 mph - -   Mostly Cloudy
5:00 PM 95.0 °F 92.7 °F 53.6 °F 25% 29.47 in 6.2 mi SSW 11.2 mph - N/A   Partly Cloudy
5:30 PM 95.0 °F - 51.8 °F 23% 29.47 in 6.2 mi SSW 8.9 mph 20.1 mph N/A   Partly Cloudy
6:00 PM 95.0 °F - 51.8 °F 23% 29.47 in 6.2 mi South 11.2 mph - N/A   Partly Cloudy
6:30 PM 93.2 °F - 50.0 °F 23% 29.47 in 6.2 mi SSW 11.2 mph - N/A   Partly Cloudy
7:00 PM 93.2 °F - 50.0 °F 23% 29.50 in 6.2 mi South 8.9 mph - N/A   Partly Cloudy
7:30 PM 91.4 °F - 51.8 °F 26% 29.50 in - South 8.9 mph - N/A   Clear
8:00 PM 90 °F - 54 °F 20% 29.51 in 10 mi SSW 2.2 mph - -   Mostly Cloudy
8:00 PM 89.6 °F - 51.8 °F 27% 29.50 in - South 8.9 mph - N/A   Clear
8:30 PM 84.2 °F 83.5 °F 57.2 °F 40% 29.50 in - ESE 4.5 mph - N/A   Clear
9:00 PM 86.0 °F 84.2 °F 53.6 °F 33% 29.50 in - East 6.7 mph - N/A   Clear
9:30 PM 84.2 °F 82.8 °F 53.6 °F 35% 29.53 in - ENE 6.7 mph - N/A   Clear
10:00 PM 82.4 °F 82.9 °F 60.8 °F 48% 29.56 in - East 8.9 mph - N/A   Clear
10:30 PM 78.8 °F - 57.2 °F 47% 29.56 in - ESE 15.7 mph - N/A   Clear
11:00 PM 79 °F - 60 °F 41% 29.56 in 6 mi East 15.7 mph - -  
11:00 PM 78.8 °F - 57.2 °F 47% 29.56 in - ESE 13.4 mph - N/A   Clear
11:30 PM 77.0 °F - 55.4 °F 47% 29.59 in - ENE 11.2 mph 22.4 mph N/A   Clear